User: anonymous   Login
Location: Bois de la Silve
(44.4667°N, 6.7833°E)
Time: 10:02:20
(UTC+00:00)
Language:

Cosmos 2221 Rocket - Orbit

View from above orbital plane
View from above orbital plane
View from above satellite
View from above satellite

Ground track
Ground track

The orbit data is extracted from the following two-line orbital elements,

1 22237U 92080B   20272.07623861  .00000079  00000-0  76548-5 0  9992
2 22237  82.5093  82.3997 0018333 243.0377 116.8964 14.78417839500560
Epoch (UTC): 28 September 2020 01:49:47
Eccentricity: 0.0018333
inclination: 82.5093°
perigee height: 621 km
apogee height: 647 km
right ascension of ascending node: 82.3997°
argument of perigee: 243.0377°
revolutions per day: 14.78417839
mean anomaly at epoch: 116.8964°
orbit number at epoch: 50056

The dashed part of the orbit path shows where the satellite is in the earth's shadow,  

DLR